LAN2107 SPJC-SPZO

Flight info

Callsign LAN2107
Flight time 0h 57m
Altitude 33000
Route PAKOL UM668 DARKI
Aircraft A320/M-SDE3FGHIRWY/LB1

Departure

Time 2026-04-25 22:02
Airport Jorge Chávez International Airport (SPJC)

Arrival

Time 2026-04-25 22:59
Airport Alejandro Velasco Astete International Airport (SPZO)
Time Latitude Longitude Altitude Speed Heading
2026-04-25 21:02 -12.02354 -77.10928 92 ft 0 kts 64°
2026-04-25 21:51 -12.02368 -77.10957 92 ft 4 kts 64°
2026-04-25 21:51 -12.02379 -77.10982 91 ft 4 kts 64°
2026-04-25 21:51 -12.02391 -77.11007 91 ft 4 kts 64°
2026-04-25 21:51 -12.02403 -77.11032 90 ft 4 kts 64°
2026-04-25 21:52 -12.02415 -77.11056 93 ft 3 kts 64°
2026-04-25 21:52 -12.02423 -77.11077 92 ft 4 kts 89°
2026-04-25 21:52 -12.02416 -77.11102 90 ft 4 kts 126°
2026-04-25 21:52 -12.02397 -77.11120 92 ft 4 kts 153°
2026-04-25 21:53 -12.02375 -77.11131 89 ft 4 kts 157°
2026-04-25 21:53 -12.02350 -77.11141 93 ft 3 kts 155°
2026-04-25 21:53 -12.02347 -77.11143 89 ft 0 kts 155°
2026-04-25 21:55 -12.02366 -77.11134 89 ft 6 kts 155°
2026-04-25 21:56 -12.02415 -77.11111 93 ft 10 kts 155°
2026-04-25 21:56 -12.02460 -77.11089 91 ft 12 kts 154°
2026-04-25 21:56 -12.02562 -77.11039 92 ft 13 kts 154°
2026-04-25 21:56 -12.02643 -77.10998 95 ft 14 kts 153°
2026-04-25 21:57 -12.02731 -77.10953 94 ft 15 kts 154°
2026-04-25 21:57 -12.02827 -77.10906 96 ft 15 kts 154°
2026-04-25 21:57 -12.02923 -77.10859 98 ft 15 kts 154°
2026-04-25 21:57 -12.03023 -77.10809 100 ft 16 kts 155°
2026-04-25 21:58 -12.03115 -77.10765 101 ft 15 kts 154°
2026-04-25 21:58 -12.03206 -77.10720 104 ft 14 kts 154°
2026-04-25 21:58 -12.03293 -77.10677 107 ft 14 kts 154°
2026-04-25 21:58 -12.03376 -77.10636 110 ft 13 kts 154°
2026-04-25 21:59 -12.03450 -77.10599 114 ft 11 kts 154°
2026-04-25 21:59 -12.03515 -77.10572 116 ft 9 kts 170°
2026-04-25 21:59 -12.03565 -77.10588 120 ft 6 kts 214°
2026-04-25 22:00 -12.03602 -77.10675 120 ft 9 kts 264°
2026-04-25 22:00 -12.03579 -77.10745 118 ft 13 kts 313°
2026-04-25 22:00 -12.03486 -77.10790 116 ft 16 kts 336°
2026-04-25 22:00 -12.03373 -77.10845 114 ft 20 kts 334°
2026-04-25 22:01 -12.03234 -77.10917 110 ft 25 kts 333°
2026-04-25 22:01 -12.03054 -77.11006 106 ft 45 kts 334°
2026-04-25 22:01 -12.02562 -77.11250 93 ft 109 kts 334°
2026-04-25 22:01 -12.02324 -77.11368 87 ft 126 kts 334°
2026-04-25 22:02 -12.00730 -77.12176 588 ft 150 kts 330°
2026-04-25 22:02 -11.99870 -77.12784 1022 ft 155 kts 315°
2026-04-25 22:02 -11.99182 -77.13646 1452 ft 163 kts 302°
2026-04-25 22:02 -11.98697 -77.14793 1713 ft 185 kts 284°
2026-04-25 22:03 -11.98592 -77.16160 1994 ft 209 kts 262°
2026-04-25 22:03 -11.99103 -77.17637 2337 ft 234 kts 238°
2026-04-25 22:03 -12.00276 -77.18902 2734 ft 257 kts 213°
2026-04-25 22:03 -12.01968 -77.19556 3424 ft 267 kts 186°
2026-04-25 22:04 -12.03818 -77.19359 4227 ft 271 kts 159°
2026-04-25 22:04 -12.05373 -77.18291 5019 ft 274 kts 130°
2026-04-25 22:04 -12.06089 -77.17217 5526 ft 276 kts 120°
2026-04-25 22:04 -12.07040 -77.15503 6303 ft 280 kts 119°
2026-04-25 22:05 -12.08001 -77.13744 7035 ft 283 kts 119°
2026-04-25 22:05 -12.08966 -77.11977 7753 ft 286 kts 119°
2026-04-25 22:05 -12.09945 -77.10190 8483 ft 289 kts 120°
2026-04-25 22:05 -12.10935 -77.08391 9194 ft 292 kts 120°
2026-04-25 22:06 -12.11939 -77.06575 9908 ft 294 kts 120°
2026-04-25 22:06 -12.12971 -77.04722 10305 ft 308 kts 120°
2026-04-25 22:06 -12.14074 -77.02748 10431 ft 330 kts 120°
2026-04-25 22:06 -12.15263 -77.00661 10585 ft 348 kts 123°
2026-04-25 22:07 -12.16620 -76.98582 11046 ft 355 kts 122°
2026-04-25 22:07 -12.17467 -76.97144 11391 ft 357 kts 120°
2026-04-25 22:07 -12.19085 -76.94187 12113 ft 362 kts 119°
2026-04-25 22:07 -12.20296 -76.91917 12684 ft 365 kts 119°
2026-04-25 22:08 -12.21531 -76.89633 13242 ft 368 kts 120°
2026-04-25 22:08 -12.22801 -76.87342 13781 ft 372 kts 120°
2026-04-25 22:08 -12.24098 -76.85045 14257 ft 375 kts 120°
2026-04-25 22:08 -12.25421 -76.82733 14749 ft 377 kts 120°
2026-04-25 22:09 -12.26752 -76.80416 15259 ft 379 kts 120°
2026-04-25 22:09 -12.28091 -76.78086 15790 ft 381 kts 120°
2026-04-25 22:09 -12.29441 -76.75735 16256 ft 384 kts 120°
2026-04-25 22:09 -12.30795 -76.73369 16742 ft 387 kts 119°
2026-04-25 22:10 -12.32156 -76.70981 17215 ft 390 kts 119°
2026-04-25 22:10 -12.33527 -76.68576 17720 ft 392 kts 119°
2026-04-25 22:10 -12.34903 -76.66159 18226 ft 395 kts 119°
2026-04-25 22:10 -12.36289 -76.63723 18705 ft 398 kts 119°
2026-04-25 22:11 -12.37666 -76.61301 19131 ft 400 kts 119°
2026-04-25 22:11 -12.39071 -76.58828 19580 ft 403 kts 119°
2026-04-25 22:11 -12.40485 -76.56344 20032 ft 405 kts 119°
2026-04-25 22:11 -12.41914 -76.53838 20481 ft 408 kts 119°
2026-04-25 22:12 -12.43349 -76.51325 20890 ft 411 kts 119°
2026-04-25 22:12 -12.44795 -76.48788 21354 ft 413 kts 119°
2026-04-25 22:12 -12.46245 -76.46238 21771 ft 416 kts 119°
2026-04-25 22:12 -12.47210 -76.44541 22029 ft 418 kts 119°
2026-04-25 22:13 -12.49166 -76.41091 22539 ft 421 kts 119°
2026-04-25 22:13 -12.50639 -76.38491 22912 ft 423 kts 119°
2026-04-25 22:13 -12.52119 -76.35874 23325 ft 426 kts 119°
2026-04-25 22:13 -12.53612 -76.33236 23672 ft 428 kts 119°
2026-04-25 22:14 -12.55107 -76.30593 23958 ft 430 kts 119°
2026-04-25 22:14 -12.56615 -76.27930 24214 ft 432 kts 119°
2026-04-25 22:14 -12.58113 -76.25294 24501 ft 434 kts 120°
2026-04-25 22:14 -12.59635 -76.22616 24784 ft 436 kts 119°
2026-04-25 22:15 -12.61165 -76.19923 25113 ft 438 kts 119°
2026-04-25 22:15 -12.62702 -76.17214 25384 ft 439 kts 119°
2026-04-25 22:15 -12.64243 -76.14494 25668 ft 441 kts 119°
2026-04-25 22:16 -12.67330 -76.09049 26267 ft 443 kts 119°
2026-04-25 22:16 -12.68881 -76.06313 26567 ft 444 kts 119°
2026-04-25 22:16 -12.70416 -76.03605 26822 ft 446 kts 119°
2026-04-25 22:16 -12.71980 -76.00848 27086 ft 447 kts 119°
2026-04-25 22:17 -12.73530 -75.98074 27345 ft 449 kts 116°
2026-04-25 22:17 -12.74751 -75.95133 27596 ft 450 kts 107°
2026-04-25 22:17 -12.75540 -75.92030 27877 ft 451 kts 102°
2026-04-25 22:17 -12.76259 -75.88898 28136 ft 453 kts 103°
2026-04-25 22:18 -12.76992 -75.85751 28408 ft 454 kts 103°
2026-04-25 22:18 -12.77732 -75.82615 28819 ft 452 kts 103°
2026-04-25 22:18 -12.78473 -75.79487 29219 ft 451 kts 103°
2026-04-25 22:18 -12.79211 -75.76369 29665 ft 449 kts 103°
2026-04-25 22:19 -12.79940 -75.73268 30160 ft 446 kts 103°
2026-04-25 22:19 -12.80665 -75.70186 30558 ft 444 kts 103°
2026-04-25 22:19 -12.81388 -75.67100 30861 ft 444 kts 103°
2026-04-25 22:19 -12.82105 -75.64023 31247 ft 443 kts 103°
2026-04-25 22:20 -12.82807 -75.61006 31631 ft 441 kts 103°
2026-04-25 22:20 -12.83523 -75.57937 31976 ft 441 kts 103°
2026-04-25 22:20 -12.84235 -75.54880 32353 ft 440 kts 102°
2026-04-25 22:20 -12.84942 -75.51840 32746 ft 439 kts 102°
2026-04-25 22:21 -12.85649 -75.48798 33062 ft 439 kts 102°
2026-04-25 22:21 -12.87077 -75.42660 33148 ft 447 kts 102°
2026-04-25 22:22 -12.88529 -75.36418 33150 ft 450 kts 102°
2026-04-25 22:22 -12.89979 -75.30202 33149 ft 451 kts 102°
2026-04-25 22:23 -12.91431 -75.23941 33153 ft 451 kts 102°
2026-04-25 22:23 -12.92880 -75.17685 33157 ft 451 kts 102°
2026-04-25 22:24 -12.94321 -75.11460 33157 ft 451 kts 102°
2026-04-25 22:24 -12.95771 -75.05194 33150 ft 451 kts 103°
2026-04-25 22:25 -12.97216 -74.98920 33145 ft 452 kts 103°
2026-04-25 22:25 -12.98664 -74.92641 33148 ft 452 kts 103°
2026-04-25 22:26 -13.00107 -74.86365 33145 ft 452 kts 103°
2026-04-25 22:26 -13.01538 -74.80127 33147 ft 452 kts 103°
2026-04-25 22:27 -13.02991 -74.73851 33129 ft 452 kts 103°
2026-04-25 22:27 -13.04442 -74.67560 33136 ft 452 kts 102°
2026-04-25 22:28 -13.05876 -74.61283 33105 ft 452 kts 102°
2026-04-25 22:28 -13.07311 -74.55012 33118 ft 451 kts 102°
2026-04-25 22:29 -13.08758 -74.48741 33154 ft 451 kts 102°
2026-04-25 22:29 -13.10189 -74.42522 33223 ft 451 kts 102°
2026-04-25 22:30 -13.12335 -74.33117 33323 ft 451 kts 103°
2026-04-25 22:30 -13.13520 -74.27913 33363 ft 451 kts 103°
2026-04-25 22:31 -13.15193 -74.20584 33361 ft 451 kts 103°
2026-04-25 22:31 -13.16621 -74.14313 33359 ft 451 kts 103°
2026-04-25 22:32 -13.18039 -74.08076 33318 ft 451 kts 103°
2026-04-25 22:32 -13.18751 -74.04934 33034 ft 451 kts 103°
2026-04-25 22:32 -13.19459 -74.01797 33034 ft 451 kts 103°
2026-04-25 22:33 -13.20878 -73.95524 33037 ft 451 kts 103°
2026-04-25 22:33 -13.22300 -73.89248 33057 ft 451 kts 103°
2026-04-25 22:34 -13.23717 -73.82972 33059 ft 451 kts 103°
2026-04-25 22:34 -13.25131 -73.76693 33060 ft 451 kts 103°
2026-04-25 22:35 -13.26552 -73.70413 33059 ft 451 kts 103°
2026-04-25 22:35 -13.27966 -73.64167 33051 ft 451 kts 103°
2026-04-25 22:36 -13.29380 -73.57883 33049 ft 451 kts 103°
2026-04-25 22:36 -13.30785 -73.51596 33052 ft 451 kts 103°
2026-04-25 22:37 -13.32191 -73.45310 33051 ft 452 kts 103°
2026-04-25 22:37 -13.33593 -73.39064 33048 ft 452 kts 103°
2026-04-25 22:38 -13.35008 -73.32765 33056 ft 452 kts 103°
2026-04-25 22:38 -13.36424 -73.26451 33071 ft 452 kts 103°
2026-04-25 22:39 -13.37833 -73.20153 33083 ft 452 kts 103°
2026-04-25 22:39 -13.39233 -73.13852 33085 ft 452 kts 103°
2026-04-25 22:40 -13.40633 -73.07558 33093 ft 452 kts 103°
2026-04-25 22:40 -13.42037 -73.01267 33092 ft 452 kts 103°
2026-04-25 22:41 -13.43441 -72.94977 33104 ft 452 kts 103°
2026-04-25 22:41 -13.44767 -72.88676 33099 ft 451 kts 97°
2026-04-25 22:42 -13.44743 -72.82245 33092 ft 451 kts 85°
2026-04-25 22:42 -13.44229 -72.75812 33091 ft 452 kts 86°
2026-04-25 22:43 -13.43727 -72.69420 33095 ft 452 kts 86°
2026-04-25 22:43 -13.43212 -72.62970 33097 ft 452 kts 86°
2026-04-25 22:44 -13.42701 -72.56530 33087 ft 452 kts 86°
2026-04-25 22:44 -13.42275 -72.51172 33083 ft 453 kts 86°
2026-04-25 22:45 -13.41756 -72.44764 32802 ft 439 kts 86°
2026-04-25 22:45 -13.41506 -72.41709 32468 ft 421 kts 86°
2026-04-25 22:45 -13.41266 -72.38735 31786 ft 414 kts 86°
2026-04-25 22:46 -13.41032 -72.35808 31069 ft 408 kts 86°
2026-04-25 22:46 -13.40800 -72.32915 30363 ft 404 kts 86°
2026-04-25 22:46 -13.40595 -72.30015 29571 ft 400 kts 88°
2026-04-25 22:46 -13.40471 -72.27211 28828 ft 396 kts 88°
2026-04-25 22:47 -13.40341 -72.24406 28126 ft 391 kts 88°
2026-04-25 22:47 -13.40209 -72.21646 27597 ft 382 kts 88°
2026-04-25 22:47 -13.40078 -72.18944 27071 ft 374 kts 88°
2026-04-25 22:47 -13.39949 -72.16296 26702 ft 372 kts 87°
2026-04-25 22:48 -13.39818 -72.13632 26208 ft 374 kts 87°
2026-04-25 22:48 -13.39686 -72.10952 25719 ft 377 kts 87°
2026-04-25 22:48 -13.39557 -72.08263 25217 ft 374 kts 87°
2026-04-25 22:48 -13.39431 -72.05629 24746 ft 365 kts 87°
2026-04-25 22:49 -13.39308 -72.03052 24276 ft 357 kts 87°
2026-04-25 22:49 -13.39188 -72.00514 23779 ft 354 kts 87°
2026-04-25 22:49 -13.39070 -71.98005 23299 ft 349 kts 87°
2026-04-25 22:49 -13.38951 -71.95534 22858 ft 344 kts 87°
2026-04-25 22:50 -13.38832 -71.93083 22427 ft 343 kts 87°
2026-04-25 22:50 -13.38712 -71.90636 21992 ft 343 kts 87°
2026-04-25 22:50 -13.38593 -71.88188 21565 ft 343 kts 87°
2026-04-25 22:50 -13.38479 -71.85777 21138 ft 342 kts 87°
2026-04-25 22:51 -13.38362 -71.83304 20700 ft 342 kts 87°
2026-04-25 22:51 -13.38244 -71.80886 20494 ft 332 kts 87°
2026-04-25 22:51 -13.38128 -71.78583 20252 ft 316 kts 87°
2026-04-25 22:51 -13.38016 -71.76360 19846 ft 308 kts 88°
2026-04-25 22:52 -13.38155 -71.74208 19594 ft 302 kts 101°
2026-04-25 22:52 -13.38767 -71.72174 19352 ft 302 kts 114°
2026-04-25 22:52 -13.39818 -71.70300 18966 ft 304 kts 126°
2026-04-25 22:52 -13.40758 -71.69187 18690 ft 308 kts 135°
2026-04-25 22:53 -13.43026 -71.67521 18236 ft 297 kts 152°
2026-04-25 22:53 -13.44912 -71.66788 17967 ft 286 kts 164°
2026-04-25 22:53 -13.46856 -71.66490 17607 ft 279 kts 176°
2026-04-25 22:53 -13.48762 -71.66618 17295 ft 271 kts 188°
2026-04-25 22:54 -13.50575 -71.67134 16839 ft 270 kts 201°
2026-04-25 22:54 -13.52219 -71.68016 16557 ft 262 kts 213°
2026-04-25 22:54 -13.53640 -71.69161 16233 ft 257 kts 220°
2026-04-25 22:54 -13.55000 -71.70328 15657 ft 262 kts 220°
2026-04-25 22:55 -13.56412 -71.71560 15026 ft 270 kts 226°
2026-04-25 22:55 -13.57566 -71.73098 14509 ft 272 kts 243°
2026-04-25 22:55 -13.58251 -71.74885 14191 ft 264 kts 259°
2026-04-25 22:55 -13.58448 -71.76692 13932 ft 250 kts 274°
2026-04-25 22:56 -13.58195 -71.78443 13625 ft 246 kts 288°
2026-04-25 22:56 -13.57590 -71.80073 13178 ft 240 kts 294°
2026-04-25 22:56 -13.56975 -71.81612 12775 ft 223 kts 294°
2026-04-25 22:56 -13.56453 -71.83041 12498 ft 206 kts 292°
2026-04-25 22:57 -13.56002 -71.84397 12270 ft 195 kts 290°
2026-04-25 22:57 -13.55526 -71.85677 12054 ft 188 kts 297°
2026-04-25 22:57 -13.54892 -71.86848 11852 ft 183 kts 302°
2026-04-25 22:57 -13.54373 -71.87996 11518 ft 173 kts 292°
2026-04-25 22:58 -13.54070 -71.89170 11284 ft 167 kts 283°
2026-04-25 22:58 -13.53943 -71.90349 11087 ft 167 kts 280°
2026-04-25 22:58 -13.53813 -71.91499 10893 ft 163 kts 279°
2026-04-25 22:58 -13.53701 -71.92663 10744 ft 159 kts 280°
2026-04-25 22:59 -13.53581 -71.93632 10791 ft 105 kts 274°
2026-04-25 22:59 -13.53554 -71.94087 10811 ft 32 kts 275°
2026-04-25 22:59 -13.53539 -71.94221 10815 ft 17 kts 275°
2026-04-25 22:59 -13.53531 -71.94319 10815 ft 9 kts 271°
2026-04-25 23:00 -13.53569 -71.94343 10814 ft 8 kts 180°
2026-04-25 23:00 -13.53607 -71.94345 10815 ft 0 kts 184°
2026-04-25 23:01 -13.53608 -71.94345 10815 ft 0 kts 184°
2026-04-25 23:01 -13.53609 -71.94346 10815 ft 0 kts 184°
2026-04-25 23:02 -13.53611 -71.94346 10815 ft 0 kts 184°
2026-04-25 23:02 -13.53614 -71.94346 10815 ft 0 kts 184°
2026-04-25 23:02 -13.53617 -71.94346 10815 ft 1 kts 184°
2026-04-25 23:02 -13.53618 -71.94346 10815 ft 0 kts 184°
2026-04-25 23:03 -13.53622 -71.94347 10815 ft 2 kts 185°
2026-04-25 23:03 -13.53635 -71.94350 10816 ft 2 kts 200°
2026-04-25 23:03 -13.53645 -71.94359 10816 ft 3 kts 223°
2026-04-25 23:03 -13.53655 -71.94391 10817 ft 7 kts 264°
2026-04-25 23:04 -13.53653 -71.94435 10817 ft 6 kts 265°
2026-04-25 23:04 -13.53671 -71.94453 10816 ft 6 kts 202°
2026-04-25 23:04 -13.53682 -71.94456 10817 ft 0 kts 193°
2026-04-25 23:06 -13.53683 -71.94456 10817 ft 0 kts 193°
2026-04-25 23:07 -13.53684 -71.94456 10817 ft 0 kts 193°
2026-04-25 23:08 -13.53686 -71.94456 10817 ft 0 kts 180°
2026-04-25 23:08 -13.53687 -71.94453 10817 ft 0 kts 150°
2026-04-25 23:09 -13.53691 -71.94448 10817 ft 1 kts 130°
2026-04-25 23:09 -13.53700 -71.94438 10816 ft 3 kts 137°
2026-04-25 23:09 -13.53708 -71.94431 10817 ft 2 kts 142°
2026-04-25 23:09 -13.53720 -71.94422 10816 ft 2 kts 145°
2026-04-25 23:10 -13.53727 -71.94418 10817 ft 1 kts 145°
2026-04-25 23:10 -13.53735 -71.94412 10817 ft 1 kts 146°
2026-04-25 23:10 -13.53740 -71.94409 10817 ft 1 kts 146°
2026-04-25 23:15 -13.53740 -71.94408 10817 ft 0 kts 146°